Waarnemingen

Advertentie
Mijn weer
Estaca de Bares, Spanje (8004): temperatuur & dauwpunt: 14.08.2018 01:00:00 - 20.08.2018 01:00:00 (CEST)Estaca de Bares, Spanje (8004): windsnelheid & windstoten: 14.08.2018 01:00:00 - 20.08.2018 01:00:00 (CEST)Estaca de Bares, Spanje (8004): windrichting: 14.08.2018 01:00:00 - 20.08.2018 01:00:00 (CEST)Estaca de Bares, Spanje (8004): luchtdruk: 14.08.2018 01:00:00 - 20.08.2018 01:00:00 (CEST)Estaca de Bares, Spanje (8004): zicht: 14.08.2018 01:00:00 - 20.08.2018 01:00:00 (CEST)Estaca de Bares, Spanje (8004): Zonneschijnduur: 14.08.2018 01:00:00 - 20.08.2018 01:00:00 (CEST)Estaca de Bares, Spanje (8004): neerslag: 14.08.2018 01:00:00 - 20.08.2018 01:00:00 (CEST)
Datum & Tijd tt [°C] td [°C] ff [km/u] ff [kn] fx [km/u] fx [kn] dd ppp [hPa] vv [km] sd [min] rr [mm]
20.08.2018 01:00:00 18,6 16,7 27 14 37 20 O 1021,9 3,0 0 0,0
20.08.2018 00:00:00 19,0 17,0 32 18 44 24 OZO 1022,0 3,6 0 0,0
19.08.2018 23:00:00 18,8 16,6 29 16 39 21 O 1021,9 3,6 0 0,0
19.08.2018 22:00:00 19,3 16,9 32 18 38 20 OZO 1021,8 4,0 0 0,0
19.08.2018 21:00:00 19,6 16,6 30 16 41 22 OZO 1021,9 4,2 40 0,0
19.08.2018 20:00:00 20,3 16,6 35 19 44 24 OZO 1021,3 4,5 60 -
19.08.2018 19:00:00 20,8 16,8 38 20 44 24 OZO 1021,4 4,4 60 0,0
19.08.2018 18:00:00 21,3 16,9 36 19 41 22 OZO 1021,5 4,2 60 0,0
19.08.2018 17:00:00 21,7 16,9 30 16 37 20 OZO 1021,8 4,3 60 0,0
19.08.2018 16:00:00 21,9 17,1 27 15 39 21 O 1021,9 4,1 60 0,0
19.08.2018 15:00:00 21,3 16,0 34 18 39 21 OZO 1021,7 4,1 60 0,0
19.08.2018 14:00:00 21,1 15,4 34 18 43 23 OZO 1021,7 4,3 60 -
19.08.2018 13:00:00 20,6 15,2 37 20 43 23 OZO 1021,7 4,1 60 0,0
19.08.2018 12:00:00 20,1 14,4 34 18 41 22 OZO 1021,7 4,1 60 0,0
19.08.2018 11:00:00 19,4 13,8 36 20 44 24 OZO 1021,4 4,2 60 0,0
19.08.2018 10:00:00 19,1 13,8 36 20 45 24 OZO 1021,4 4,5 60 0,0
19.08.2018 09:00:00 18,4 14,5 31 17 44 24 OZO 1020,8 4,6 33 0,0
19.08.2018 08:00:00 17,8 14,5 29 16 40 21 OZO 1020,6 4,5 0 -
19.08.2018 07:00:00 17,9 15,0 35 19 44 24 OZO 1020,3 4,2 0 0,0
19.08.2018 06:00:00 17,9 15,0 36 19 44 24 OZO 1020,4 4,2 0 0,0
19.08.2018 05:00:00 17,9 15,0 37 20 46 25 OZO 1020,6 4,3 0 0,0
19.08.2018 04:00:00 18,6 15,3 36 19 45 24 OZO 1020,7 4,3 0 0,0
19.08.2018 03:00:00 18,6 15,3 38 20 45 24 OZO 1020,8 4,4 0 0,0
19.08.2018 02:00:00 18,8 15,1 36 20 43 23 OZO 1021,2 4,4 0 -
19.08.2018 01:00:00 18,4 14,9 34 18 46 25 OZO 1021,3 4,3 0 0,0
19.08.2018 00:00:00 18,3 15,2 31 17 41 22 OZO 1021,3 4,1 0 0,0
18.08.2018 23:00:00 18,1 14,8 27 15 41 22 O 1021,2 4,0 0 0,0
18.08.2018 22:00:00 18,3 14,8 27 15 43 23 OZO 1021,0 4,2 0 0,0
18.08.2018 21:00:00 18,6 14,5 29 16 42 23 O 1020,6 4,2 45 0,0
18.08.2018 20:00:00 19,3 14,8 29 16 42 23 O 1020,4 4,1 60 -
18.08.2018 19:00:00 19,9 14,9 27 14 45 24 O 1020,5 3,9 60 0,0
18.08.2018 18:00:00 20,4 15,0 26 14 40 22 O 1020,6 3,9 60 0,0
18.08.2018 17:00:00 20,9 15,4 26 14 40 22 O 1020,9 3,9 60 0,0
18.08.2018 16:00:00 21,2 15,3 24 13 41 22 O 1021,0 3,8 60 0,0
18.08.2018 15:00:00 20,9 15,3 27 15 41 22 O 1021,5 4,0 60 0,0
18.08.2018 14:00:00 20,7 15,0 28 15 40 22 O 1021,6 4,1 60 -
18.08.2018 13:00:00 19,7 14,5 30 16 42 23 OZO 1021,7 4,5 60 0,0
18.08.2018 12:00:00 19,6 14,2 35 19 41 22 OZO 1021,7 4,4 60 0,0
18.08.2018 11:00:00 19,2 14,2 34 19 40 22 OZO 1021,9 4,3 59 0,0
18.08.2018 10:00:00 19,0 14,0 27 14 43 23 O 1021,8 4,3 60 0,0
18.08.2018 09:00:00 18,1 14,0 28 15 41 22 O 1021,7 4,0 60 0,0
18.08.2018 08:00:00 17,4 13,8 29 15 46 25 O 1021,5 4,2 4 -
18.08.2018 07:00:00 17,3 13,9 30 16 44 24 O 1021,2 4,2 0 0,0
18.08.2018 06:00:00 17,4 14,1 31 17 50 27 OZO 1021,4 4,1 0 0,0
18.08.2018 05:00:00 17,9 13,0 36 20 52 28 O 1021,4 4,1 0 0,0
18.08.2018 04:00:00 18,3 13,0 42 23 54 29 O 1021,4 4,1 0 0,0
18.08.2018 03:00:00 18,3 13,4 41 22 60 33 O 1021,7 4,1 0 0,0
18.08.2018 02:00:00 18,3 13,4 41 22 54 29 O 1022,1 3,9 0 -
18.08.2018 01:00:00 18,3 12,7 38 21 54 29 O 1022,6 3,7 0 0,0
18.08.2018 00:00:00 18,5 13,4 44 24 60 32 O 1022,9 4,0 0 0,0
17.08.2018 23:00:00 18,5 13,4 48 26 58 32 O 1022,9 3,8 0 0,0
17.08.2018 22:00:00 18,4 12,8 44 24 56 31 O 1022,2 4,0 0 0,0
17.08.2018 21:00:00 18,5 13,0 41 22 52 28 O 1022,3 3,6 14 0,0
17.08.2018 20:00:00 18,7 12,8 39 21 47 25 O 1022,4 4,1 36 -
17.08.2018 19:00:00 19,0 12,5 37 20 44 24 O 1022,7 3,8 29 0,0
17.08.2018 18:00:00 19,9 12,8 32 18 43 23 ONO 1023,0 3,7 60 0,0
17.08.2018 17:00:00 20,2 12,4 34 18 43 23 ONO 1023,3 3,8 60 0,0
17.08.2018 16:00:00 19,6 11,7 29 15 41 22 ONO 1023,8 4,3 58 0,0
17.08.2018 15:00:00 20,8 13,0 32 18 38 20 ONO 1023,9 4,0 60 0,0
17.08.2018 14:00:00 20,7 12,1 29 15 39 21 ONO 1024,0 3,9 49 -
17.08.2018 13:00:00 19,8 11,6 33 18 38 20 ONO 1023,9 3,8 60 0,0
17.08.2018 12:00:00 19,0 11,6 31 17 40 22 ONO 1024,0 4,0 46 0,0
17.08.2018 11:00:00 18,6 11,4 18 10 36 19 NO 1023,7 3,9 45 0,0
17.08.2018 10:00:00 18,0 11,6 22 12 37 20 NO 1023,4 3,9 28 0,0
17.08.2018 09:00:00 17,7 11,4 21 11 39 21 NO 1023,0 3,8 0 0,0
17.08.2018 08:00:00 17,9 12,3 27 15 41 22 NNO 1022,8 4,0 0 -
17.08.2018 07:00:00 17,7 11,4 21 11 35 19 NO 1022,4 4,1 0 0,0
17.08.2018 06:00:00 17,7 11,2 19 10 34 18 NO 1022,1 4,3 0 0,0
17.08.2018 05:00:00 17,8 11,3 19 10 35 19 NO 1021,8 4,3 0 0,0
17.08.2018 04:00:00 18,0 10,6 24 13 43 23 NNO 1021,6 4,2 0 0,0
17.08.2018 03:00:00 18,0 10,9 24 13 46 25 NNO 1021,4 4,1 0 0,0
17.08.2018 02:00:00 18,2 12,6 23 13 40 22 NNO 1021,6 4,2 0 -
17.08.2018 01:00:00 18,0 12,0 21 11 43 23 N 1021,6 4,1 0 0,0
17.08.2018 00:00:00 18,4 14,0 21 12 45 24 N 1021,1 3,9 0 0,0
16.08.2018 23:00:00 18,4 14,5 21 12 44 24 N 1020,8 3,9 0 0,0
16.08.2018 22:00:00 18,6 15,6 17 9 34 19 N 1020,2 4,0 0 0,0
16.08.2018 21:00:00 18,7 15,2 13 7 33 18 N 1019,8 4,2 0 0,0
16.08.2018 20:00:00 - - - - - - - - - - -
16.08.2018 19:00:00 18,2 16,0 24 13 35 19 N 1019,2 4,1 0 0,0
16.08.2018 18:00:00 20,9 15,9 6 3 18 10 NW 1019,2 4,2 20 0,0
16.08.2018 17:00:00 22,5 16,3 8 4 16 8 WNW 1019,1 4,2 46 0,0
16.08.2018 16:00:00 23,6 16,4 6 4 10 5 W 1019,2 4,2 41 0,0
16.08.2018 15:00:00 22,1 16,4 5 3 15 8 NNO 1019,1 4,3 21 0,0
16.08.2018 14:00:00 20,5 15,9 10 5 22 12 NNO 1019,0 4,3 0 -
16.08.2018 13:00:00 19,9 16,0 9 5 17 9 NNO 1018,8 4,4 21 0,0
16.08.2018 12:00:00 21,5 16,9 9 5 14 8 ONO 1018,5 4,0 32 0,0
16.08.2018 11:00:00 21,2 17,4 13 7 20 11 O 1018,1 4,0 13 0,0
16.08.2018 10:00:00 20,0 17,4 12 6 25 13 ONO 1018,0 4,2 36 0,0
16.08.2018 09:00:00 19,5 17,5 13 7 29 16 NNO 1017,4 4,2 13 0,0
16.08.2018 08:00:00 19,2 17,4 16 9 24 13 NNO 1017,3 3,9 0 -
16.08.2018 07:00:00 19,3 17,5 16 9 25 13 NNO 1016,8 3,9 0 0,0
16.08.2018 06:00:00 19,2 17,1 18 10 35 19 NO 1016,5 4,1 0 0,0
16.08.2018 05:00:00 19,3 17,3 19 11 32 17 NNO 1016,6 4,1 0 0,0
16.08.2018 04:00:00 19,5 17,3 21 11 33 18 NO 1016,4 4,1 0 0,0
16.08.2018 03:00:00 20,0 17,6 22 12 32 17 O 1017,0 4,4 0 0,0
16.08.2018 02:00:00 19,7 17,3 14 7 34 18 O 1017,3 4,0 0 -
16.08.2018 01:00:00 19,9 17,5 23 12 31 17 O 1016,9 4,2 0 0,0
16.08.2018 00:00:00 19,7 17,3 17 9 25 13 O 1017,1 4,0 0 0,0
15.08.2018 23:00:00 19,7 17,3 20 11 27 15 OZO 1016,8 4,3 0 0,0
15.08.2018 22:00:00 19,5 17,1 18 10 28 15 O 1016,6 3,7 0 0,0
15.08.2018 21:00:00 20,1 17,5 24 13 31 17 OZO 1016,1 4,3 17 0,0
15.08.2018 20:00:00 20,5 17,3 19 11 31 17 O 1016,0 4,0 34 -
15.08.2018 19:00:00 21,4 17,6 25 13 35 19 OZO 1016,3 4,2 51 0,0
15.08.2018 18:00:00 21,4 18,0 24 13 37 20 O 1016,4 3,8 48 0,0
15.08.2018 17:00:00 22,1 17,5 25 14 39 21 O 1017,0 3,9 60 0,0
15.08.2018 16:00:00 22,0 17,4 32 17 41 22 O 1017,0 4,1 60 0,0
15.08.2018 15:00:00 22,5 16,7 25 14 37 20 O 1017,4 4,3 60 0,0
15.08.2018 14:00:00 22,2 16,7 27 15 44 24 O 1017,3 2,9 60 -
15.08.2018 13:00:00 22,1 16,6 30 16 46 25 O 1017,4 4,0 60 0,0
15.08.2018 12:00:00 21,5 16,0 33 18 50 27 O 1017,4 4,0 60 0,0
15.08.2018 11:00:00 20,8 16,2 33 18 48 26 O 1017,1 4,2 60 0,0
15.08.2018 10:00:00 20,0 16,0 38 20 51 28 OZO 1017,1 3,9 60 0,0
15.08.2018 09:00:00 19,4 15,9 41 22 55 30 OZO 1017,1 4,2 60 0,0
15.08.2018 08:00:00 18,9 16,0 33 18 48 26 O 1017,1 4,1 16 -
15.08.2018 07:00:00 18,7 16,1 32 17 46 25 O 1017,2 3,9 0 0,0
15.08.2018 06:00:00 18,8 16,2 34 19 43 23 OZO 1017,7 4,2 0 0,0
15.08.2018 05:00:00 19,0 16,2 31 17 44 24 O 1018,2 4,0 0 0,0
15.08.2018 04:00:00 19,1 16,0 32 17 50 27 O 1018,8 4,1 0 0,0
15.08.2018 03:00:00 19,2 16,2 33 18 48 26 O 1019,3 4,2 0 0,0
15.08.2018 02:00:00 19,4 16,2 35 19 50 27 O 1019,7 4,3 0 -
15.08.2018 01:00:00 19,4 15,9 35 19 48 26 O 1019,9 4,3 0 0,0
15.08.2018 00:00:00 19,5 15,8 34 19 48 26 O 1020,2 4,1 0 0,0
14.08.2018 23:00:00 19,7 15,8 36 20 49 26 O 1020,4 4,2 0 0,0
14.08.2018 22:00:00 19,6 15,6 35 19 49 26 O 1020,2 4,2 11 0,0
14.08.2018 21:00:00 19,9 15,8 37 20 49 27 O 1019,9 4,2 24 0,0
14.08.2018 20:00:00 20,0 15,3 38 20 49 26 O 1019,9 4,1 16 -
14.08.2018 19:00:00 20,5 15,3 34 19 45 25 O 1020,3 4,2 58 0,0
14.08.2018 18:00:00 21,2 15,1 30 16 48 26 O 1020,4 4,2 60 0,0
14.08.2018 17:00:00 21,4 15,0 30 16 41 22 O 1020,5 4,0 60 0,0
14.08.2018 16:00:00 22,0 15,3 27 15 38 21 O 1020,8 4,2 60 0,0
14.08.2018 15:00:00 21,7 14,8 29 16 43 23 O 1020,9 4,4 60 0,0
14.08.2018 14:00:00 21,3 15,2 32 18 41 22 O 1021,2 3,8 59 -
14.08.2018 13:00:00 21,3 14,9 34 18 40 21 O 1021,1 4,0 60 0,0
14.08.2018 12:00:00 21,2 14,6 29 16 36 19 O 1021,2 3,8 60 0,0
14.08.2018 11:00:00 21,0 14,1 25 13 33 18 ONO 1021,1 4,6 60 0,0
14.08.2018 10:00:00 19,4 14,2 28 15 35 19 ONO 1020,8 4,2 32 0,0
14.08.2018 09:00:00 18,7 13,9 29 16 36 19 ONO 1020,5 4,1 0 0,0
14.08.2018 08:00:00 18,5 14,6 28 15 34 18 ONO 1020,3 4,2 0 -
14.08.2018 07:00:00 18,4 14,5 21 11 29 16 ONO 1020,0 4,3 0 0,0
14.08.2018 06:00:00 18,4 14,3 21 12 27 15 ONO 1019,7 4,0 0 0,0
14.08.2018 05:00:00 18,8 14,2 9 5 29 16 ONO 1019,8 4,1 0 0,0
14.08.2018 04:00:00 18,7 13,9 16 9 28 15 NNO 1019,7 4,1 0 0,0
14.08.2018 03:00:00 18,5 15,0 15 8 24 13 ONO 1019,8 3,7 0 0,0
14.08.2018 02:00:00 18,8 15,1 16 9 25 14 NNO 1019,7 4,2 0 -
14.08.2018 01:00:00 18,7 15,2 9 5 16 9 N 1019,7 4,1 0 0,0

tt = temperatuur
td = dauwpunt
ff = windsnelheid
fx = windstoten
dd = windrichting
ppp = luchtdruk
vv = zicht
sd = Zonneschijnduur
rr = neerslag

Weerstations in de omgeving